1496412001.15,58068,21.44,74206.5,21.13,-26.65,-26.87,0,*43
1496412002.39,58069,21.38,74204.5,21.07,-25.91,-26.13,0,*42
1496412003.64,58070,21.38,74206.3,21.07,-26.07,-26.17,0,*42
1496412004.86,58071,21.38,74204.5,21.07,-25.91,-25.91,0,*42
1496412006.07,58072,21.44,74206.5,21.07,-24.93,-25.13,0,*48
1496412007.3,58073,21.38,74204.3,21.03,-25.65,-25.65,0,*44
1496412008.49,58074,21.44,74208.3,21.05,-25.19,-25.19,0,*45
1496412009.71,58075,21.44,74210.3,21.03,-25.39,-25.39,0,*42
1496412010.96,58076,21.38,74204.0,21.03,-25.65,-25.81,0,*4B
1496412012.23,58077,21.38,74204.5,21.03,-25.81,-25.97,0,*47
1496412013.51,58078,21.44,74206.0,21.03,-24.71,-24.87,0,*46
1496412014.79,58079,21.44,74206.3,21.03,-26.17,-26.55,0,*48
1496412016.04,58080,21.44,74206.8,20.99,-26.07,-26.29,0,*46
1496412017.29,58081,21.38,74200.5,20.99,-26.07,-26.29,0,*47
1496412018.55,58082,21.38,74200.3,20.99,-25.65,-25.75,0,*49
1496412019.8,58083,21.44,74202.3,20.95,-26.39,-26.55,0,*4F
1496412021.05,58084,21.38,74202.3,20.95,-27.45,-27.55,0,*43
1496412022.27,58085,21.44,74206.8,20.91,-30.39,-30.67,0,*4C
1496412023.52,58086,21.44,74206.3,20.85,-28.69,-28.91,0,*46
1496412024.8,58087,21.38,74202.0,20.81,-29.73,-30.01,0,*49
1496412026.02,58088,21.44,74204.0,20.81,-29.23,-29.61,0,*4D
1496412027.24,58089,21.44,74206.0,20.73,-28.85,-29.23,0,*4A
1496412028.47,58090,21.44,74202.5,20.71,-28.63,-28.97,0,*46
1496412029.75,58091,21.44,74202.5,20.69,-28.79,-28.91,0,*43
1496412030.98,58092,21.44,74200.3,20.67,-29.23,-29.73,0,*4D
1496412032.18,58093,21.44,74204.5,20.63,-29.45,-29.95,0,*40
1496412033.43,58094,21.44,74206.5,20.59,-29.07,-29.29,0,*4F
1496412034.64,58095,21.44,74206.0,20.57,-28.37,-28.85,0,*45
1496412035.89,58096,21.38,74200.0,20.55,-27.99,-28.15,0,*46
1496412037.13,58097,21.44,74206.3,20.53,-26.55,-26.71,0,*4C
1496412038.36,58098,21.44,74204.3,20.53,-26.55,-26.87,0,*4A
1496412039.61,58099,21.44,74204.0,20.51,-27.23,-27.89,0,*46
1496412040.86,58100,21.44,74202.5,20.51,-27.77,-28.09,0,*41
1496412042.09,58101,21.38,74200.5,20.47,-26.65,-26.87,0,*4D
1496412043.32,58102,21.44,74204.0,20.47,-25.19,-25.49,0,*47
1496412044.59,58103,21.44,74204.0,20.47,-24.83,-25.13,0,*4B
1496412045.79,58104,21.44,74204.8,20.49,-24.51,-24.57,0,*4C
1496412047.06,58105,21.44,74200.3,20.47,-24.51,-24.71,0,*47
1496412048.29,58106,21.44,74202.8,20.49,-23.09,-23.23,0,*40
1496412049.48,58107,21.44,74206.0,20.49,-24.93,-25.13,0,*40
1496412050.76,58108,21.44,74206.8,20.51,-23.99,-24.25,0,*4F
1496412052.02,58109,21.44,74202.0,20.51,-24.71,-25.39,0,*43
1496412053.29,58110,21.44,74202.0,20.51,-24.11,-24.15,0,*42
1496412054.52,58111,21.44,74202.8,20.51,-24.31,-24.47,0,*46
1496412055.76,58112,21.44,74202.5,20.51,-23.89,-23.95,0,*49
1496412056.99,58113,21.44,74202.5,20.53,-25.13,-25.45,0,*44
1496412058.24,58114,21.44,74200.8,20.51,-24.57,-24.71,0,*46
1496412059.49,58115,21.44,74200.8,20.53,-24.11,-24.15,0,*45
1496412060.73,58116,21.44,74200.8,20.51,-23.59,-23.65,0,*4F
1496412061.99,58117,21.44,74200.3,20.53,-23.03,-23.19,0,*48
1496412063.26,58118,21.44,74202.5,20.51,-23.65,-23.65,0,*4E
1496412064.46,58119,21.44,74200.8,20.53,-24.77,-25.13,0,*4E
1496412065.69,58120,21.44,74202.3,20.53,-27.03,-27.39,0,*4E
1496412066.93,58121,21.44,74202.5,20.51,-26.13,-26.23,0,*47
1496412068.16,58122,21.44,74204.5,20.49,-26.13,-26.49,0,*41
1496412069.41,58123,21.44,74200.8,20.49,-26.77,-26.97,0,*41
1496412070.65,58124,21.44,74200.0,20.47,-25.39,-25.65,0,*4F
1496412071.91,58125,21.44,74206.0,20.47,-26.33,-26.65,0,*44
1496412073.19,58126,21.44,74202.5,20.43,-26.93,-27.23,0,*4A
1496412074.46,58127,21.44,74200.0,20.43,-26.71,-26.93,0,*4D
1496412075.71,58128,21.44,74204.0,20.43,-25.09,-25.45,0,*46
1496412076.98,58129,21.44,74206.5,20.43,-24.15,-24.41,0,*4E
1496412078.24,58130,21.44,74200.5,20.39,-25.45,-25.65,0,*48
1496412079.49,58131,21.44,74202.8,20.39,-25.81,-26.07,0,*46
1496412080.72,58132,21.44,74204.8,20.37,-24.83,-24.93,0,*47
1496412081.95,58133,21.44,74202.8,20.37,-24.77,-24.83,0,*4C
1496412083.21,58134,21.44,74202.8,20.37,-24.21,-24.15,0,*47
1496412084.41,58135,21.38,74196.0,20.37,-22.87,-22.87,0,*41
1496412085.66,58136,21.44,74202.0,20.39,-24.67,-24.93,0,*47
1496412086.87,58137,21.44,74200.8,20.37,-24.31,-24.47,0,*42
1496412088.07,58138,21.44,74206.8,20.37,-25.49,-25.91,0,*49
1496412089.3,58139,21.44,74206.0,20.37,-25.81,-25.91,0,*4C
1496412090.53,58140,21.44,74200.8,20.37,-24.77,-24.83,0,*48
1496412091.79,58141,21.44,74204.3,20.35,-24.35,-24.25,0,*41
1496412093.03,58142,21.44,74208.3,20.35,-24.35,-24.51,0,*41
1496412094.31,58143,21.44,74206.5,20.35,-23.85,-23.85,0,*42
1496412095.54,58144,21.44,74202.8,20.37,-24.51,-24.83,0,*48
1496412096.8,58145,21.44,74200.8,20.35,-24.83,-24.97,0,*41
1496412098.06,58146,21.44,74202.5,20.35,-23.89,-23.85,0,*4B
1496412099.31,58147,21.44,74202.5,20.35,-23.89,-23.99,0,*47
1496412100.59,58148,21.44,74202.0,20.35,-24.41,-24.41,0,*49
1496412101.84,58149,21.44,74206.0,20.37,-23.69,-23.65,0,*46
1496412103.04,58150,21.44,74204.5,20.37,-24.61,-24.93,0,*4F
1496412104.32,58151,21.44,74204.0,20.35,-25.81,-25.81,0,*41
1496412105.56,58152,21.44,74210.3,20.33,-24.71,-24.77,0,*42
1496412106.82,58153,21.44,74204.3,20.35,-25.71,-25.87,0,*4A
1496412108.06,58154,21.44,74206.8,20.33,-24.47,-24.71,0,*47
1496412109.32,58155,21.44,74204.5,20.33,-24.87,-25.03,0,*4E
1496412110.58,58156,21.44,74204.3,20.33,-24.21,-24.11,0,*43
1496412111.81,58157,21.44,74206.0,20.33,-24.21,-24.31,0,*40
1496412113.08,58158,21.44,74204.5,20.35,-24.25,-24.51,0,*4B
1496412114.28,58159,21.44,74206.5,20.33,-25.91,-26.23,0,*45
1496412115.53,58160,21.44,74204.0,20.33,-24.87,-25.03,0,*48
1496412116.83,58161,21.44,74206.3,20.31,-24.71,-25.03,0,*42
1496412118.06,58162,21.44,74200.0,20.31,-25.87,-26.23,0,*48
1496412119.32,58163,21.44,74206.0,20.31,-25.55,-25.91,0,*4C
1496412120.53,58164,21.44,74206.8,20.29,-24.77,-24.93,0,*40
1496412121.73,58165,21.44,74206.5,20.29,-24.77,-25.23,0,*4B
1496412122.96,58166,21.44,74206.0,20.29,-26.13,-26.49,0,*47
1496412124.21,58167,21.44,74204.8,20.27,-26.33,-26.55,0,*47
1496412125.44,58168,21.44,74204.5,20.27,-24.31,-24.67,0,*4B
1496412126.67,58169,21.44,74204.3,20.25,-26.49,-26.87,0,*49
1496412127.9,58170,21.44,74206.8,20.23,-25.09,-25.71,0,*4A
1496412129.13,58171,21.44,74204.5,20.23,-24.11,-24.35,0,*42
1496412130.37,58172,21.44,74204.5,20.23,-24.71,-25.09,0,*49
1496412131.63,58173,21.44,74204.3,20.23,-23.95,-24.25,0,*4A
1496412132.85,58174,21.44,74206.5,20.23,-23.79,-24.11,0,*48
1496412134.06,58175,21.44,74204.3,20.23,-24.57,-25.09,0,*4A
1496412135.26,58176,21.44,74206.8,20.23,-24.61,-25.23,0,*44
1496412136.49,58177,21.44,74206.5,20.23,-23.95,-24.47,0,*4A
1496412137.75,58178,21.44,74206.5,20.23,-24.11,-24.71,0,*4B
1496412138.97,58179,21.44,74204.3,20.21,-23.13,-23.79,0,*42
1496412140.2,58180,21.44,74204.3,20.23,-23.29,-23.75,0,*43
1496412141.42,58181,21.44,74206.5,20.23,-22.97,-23.65,0,*47
1496412142.67,58182,21.44,74208.5,20.23,-23.29,-23.95,0,*4F
1496412143.89,58183,21.44,74208.3,20.23,-23.23,-23.89,0,*49
1496412145.15,58184,21.44,74204.3,20.23,-23.95,-24.87,0,*4A
1496412146.38,58185,21.44,74206.3,20.23,-22.77,-23.43,0,*49
1496412147.59,58186,21.44,74200.5,20.23,-22.37,-23.09,0,*40
1496412148.81,58187,21.44,74206.0,20.25,-22.67,-23.39,0,*41
1496412150.09,58188,21.44,74204.8,20.25,-21.83,-22.47,0,*4F
1496412151.32,58189,21.44,74206.0,20.27,-22.11,-23.03,0,*45
1496412152.52,58190,21.44,74204.0,20.29,-22.07,-22.87,0,*49
1496412153.74,58191,21.44,74204.0,20.29,-21.57,-22.41,0,*44
1496412154.98,58192,21.44,74206.5,20.31,-21.93,-22.87,0,*4C
1496412156.21,58193,21.44,74208.3,20.31,-22.11,-23.13,0,*48
1496412157.44,58194,21.44,74204.0,20.31,-21.73,-22.67,0,*4A
1496412158.74,58195,21.44,74202.5,20.31,-21.53,-22.47,0,*4B
1496412159.97,58196,21.44,74204.0,20.33,-21.43,-22.47,0,*4B
1496412161.24,58197,21.44,74206.0,20.35,-21.53,-22.63,0,*4B
1496412162.44,58198,21.44,74204.5,20.37,-22.03,-22.97,0,*4B
1496412163.67,58199,21.44,74204.5,20.37,-21.27,-22.27,0,*44
1496412164.93,58200,21.44,74202.0,20.37,-22.21,-23.19,0,*4E
1496412166.16,58201,21.44,74204.5,20.37,-21.87,-22.87,0,*46
1496412167.37,58202,21.44,74204.3,20.37,-21.73,-22.67,0,*40
1496412168.65,58203,21.44,74206.0,20.39,-21.87,-23.03,0,*47
1496412169.88,58204,21.44,74204.3,20.39,-22.57,-23.79,0,*43
1496412171.13,58205,21.44,74204.3,20.39,-22.41,-23.53,0,*4D
1496412172.39,58206,21.44,74206.8,20.39,-22.37,-23.49,0,*44
1496412173.65,58207,21.44,74206.8,20.43,-22.21,-23.43,0,*45
1496412174.87,58208,21.44,74202.8,20.43,-22.07,-23.13,0,*4B
1496412176.09,58209,21.44,74206.5,20.45,-22.73,-23.89,0,*4C
1496412177.32,58210,21.44,74206.3,20.43,-23.43,-24.61,0,*41
1496412178.55,58211,21.44,74206.5,20.43,-23.79,-24.93,0,*44
1496412179.79,58212,21.5,74208.3,20.43,-22.83,-24.15,0,*4D
1496412181.06,58213,21.44,74206.3,20.39,-24.51,-25.75,0,*4F
1496412182.28,58214,21.5,74210.3,20.37,-23.39,-24.67,0,*4D
1496412183.53,58215,21.44,74210.0,20.35,-22.63,-23.85,0,*4B
1496412184.73,58216,21.44,74204.8,20.37,-22.67,-23.79,0,*4D
1496412185.95,58217,21.44,74204.3,20.37,-22.83,-23.95,0,*44
1496412187.18,58218,21.44,74204.0,20.37,-22.21,-23.39,0,*45
1496412188.43,58219,21.44,74204.5,20.39,-22.87,-24.15,0,*4F
1496412189.66,58220,21.5,74210.0,20.37,-22.03,-23.19,0,*4C
1496412190.88,58221,21.44,74206.5,20.39,-21.17,-22.37,0,*48
1496412192.11,58222,21.44,74204.0,20.37,-21.63,-22.73,0,*46
1496412193.34,58223,21.44,74206.0,20.39,-21.93,-22.87,0,*4D
1496412194.57,58224,21.44,74204.0,20.39,-21.09,-22.11,0,*46
1496412195.82,58225,21.5,74210.0,20.43,-21.57,-22.67,0,*40
1496412197.05,58226,21.5,74210.0,20.45,-22.11,-23.23,0,*45
1496412198.25,58227,21.44,74208.5,20.45,-22.93,-24.05,0,*4D
1496412199.5,58228,21.5,74208.5,20.45,-22.47,-23.53,0,*4F
1496412200.76,58229,21.44,74204.8,20.43,-22.21,-23.43,0,*49
1496412201.98,58230,21.44,74206.8,20.45,-22.63,-23.69,0,*49
1496412203.18,58231,21.44,74206.8,20.45,-22.03,-22.93,0,*4A
1496412204.41,58232,21.44,74204.8,20.47,-21.93,-22.93,0,*41
1496412205.7,58233,21.44,74206.0,20.47,-22.17,-23.23,0,*45
1496412206.96,58234,21.5,74210.3,20.47,-21.67,-22.87,0,*49
1496412208.19,58235,21.44,74206.0,20.47,-22.41,-23.43,0,*46
1496412209.42,58236,21.44,74208.5,20.47,-22.11,-23.13,0,*45
1496412210.65,58237,21.44,74206.3,20.49,-22.57,-23.65,0,*49
1496412211.88,58238,21.5,74208.3,20.47,-22.27,-23.39,0,*46
1496412213.13,58239,21.44,74204.0,20.47,-22.57,-23.69,0,*45
1496412214.38,58240,21.44,74206.0,20.47,-22.87,-23.85,0,*44
1496412215.66,58241,21.44,74206.3,20.47,-23.23,-24.41,0,*45
1496412216.92,58242,21.5,74208.5,20.47,-22.77,-23.75,0,*46
1496412218.2,58243,21.44,74206.3,20.47,-21.83,-22.77,0,*4C
1496412219.43,58244,21.44,74206.5,20.49,-21.57,-22.53,0,*4A
1496412220.63,58245,21.5,74208.3,20.49,-21.73,-22.53,0,*4D
1496412221.83,58246,21.44,74208.5,20.49,-21.93,-22.87,0,*49
1496412223.11,58247,21.5,74210.0,20.51,-21.57,-22.47,0,*45
1496412224.31,58248,21.44,74206.5,20.53,-22.63,-23.59,0,*42
1496412225.51,58249,21.5,74210.5,20.53,-22.03,-22.97,0,*46
1496412226.73,58250,21.44,74204.3,20.51,-22.63,-23.59,0,*49
1496412227.96,58251,21.44,74206.8,20.53,-21.87,-22.83,0,*45
1496412229.18,58252,21.5,74208.3,20.51,-22.03,-22.93,0,*4A
1496412230.4,58253,21.5,74206.5,20.51,-22.83,-23.89,0,*49
1496412231.67,58254,21.44,74208.3,20.51,-23.03,-23.95,0,*4A
1496412232.89,58255,21.44,74210.8,20.51,-23.13,-24.31,0,*43
1496412234.15,58256,21.44,74204.0,20.53,-22.77,-23.49,0,*49
1496412235.4,58257,21.44,74206.8,20.51,-21.87,-22.67,0,*4B
1496412236.63,58258,21.44,74204.8,20.53,-21.67,-22.53,0,*4F
1496412237.83,58259,21.5,74204.8,20.53,-21.39,-22.07,0,*44
1496412239.1,58260,21.5,74206.8,20.55,-21.23,-21.97,0,*49
1496412240.3,58261,21.5,74206.3,20.57,-20.93,-21.77,0,*4E
1496412241.5,58262,21.5,74204.8,20.57,-21.47,-22.27,0,*43
1496412242.72,58263,21.5,74210.0,20.57,-21.57,-22.37,0,*42
1496412243.95,58264,21.5,74204.0,20.57,-21.83,-22.53,0,*4E
1496412245.23,58265,21.5,74208.5,20.59,-21.57,-22.31,0,*4C
1496412246.46,58266,21.44,74206.0,20.59,-21.93,-22.67,0,*44
1496412247.69,58267,21.44,74204.0,20.61,-21.93,-22.63,0,*4A
1496412248.94,58268,21.5,74208.3,20.59,-22.07,-22.77,0,*45
1496412250.19,58269,21.5,74208.0,20.61,-21.87,-22.53,0,*42
1496412251.45,58270,21.5,74210.3,20.61,-21.87,-22.37,0,*48
1496412252.65,58271,21.44,74204.8,20.63,-22.03,-22.57,0,*42
1496412253.87,58272,21.5,74210.5,20.63,-22.63,-23.29,0,*4F
1496412255.1,58273,21.44,74204.8,20.63,-22.97,-23.69,0,*41
1496412256.35,58274,21.5,74204.8,20.67,-22.77,-23.53,0,*45
1496412257.59,58275,21.5,74204.5,20.63,-24.21,-24.93,0,*4E
1496412258.82,58276,21.5,74208.5,20.61,-23.75,-24.31,0,*41
1496412260.07,58277,21.5,74208.8,20.59,-23.43,-24.11,0,*4C
1496412261.32,58278,21.5,74206.5,20.59,-23.03,-23.59,0,*4C
1496412262.57,58279,21.44,74204.8,20.59,-23.43,-24.11,0,*42
1496412263.82,58280,21.5,74208.8,20.59,-24.11,-24.61,0,*43
1496412265.02,58281,21.5,74204.0,20.57,-22.87,-23.39,0,*4F
1496412266.24,58282,21.5,74206.3,20.57,-23.85,-24.31,0,*40
1496412267.49,58283,21.5,74206.0,20.57,-23.19,-23.65,0,*42
1496412268.71,58284,21.5,74204.3,20.57,-22.83,-23.19,0,*4C
1496412269.94,58285,21.5,74208.5,20.57,-22.67,-23.03,0,*4C
1496412271.19,58286,21.44,74200.8,20.57,-22.73,-23.03,0,*4A
1496412272.45,58287,21.5,74206.3,20.55,-23.69,-24.11,0,*47
1496412273.66,58288,21.5,74204.8,20.57,-22.53,-22.83,0,*4F
1496412274.85,58289,21.5,74204.3,20.57,-22.11,-22.37,0,*47
1496412276.13,58290,21.5,74202.8,20.59,-23.49,-23.85,0,*45
1496412277.39,58291,21.44,74200.5,20.59,-22.03,-22.17,0,*41
1496412278.62,58292,21.5,74206.5,20.59,-22.37,-22.63,0,*46
1496412279.87,58293,21.5,74204.3,20.59,-22.47,-22.87,0,*4A
1496412281.12,58294,21.5,74202.3,20.59,-22.31,-22.53,0,*45
1496412282.38,58295,21.5,74204.3,20.61,-25.09,-25.29,0,*49
1496412283.6,58296,21.5,74202.3,20.59,-23.43,-23.59,0,*48
1496412284.86,58297,21.5,74204.0,20.59,-23.29,-23.43,0,*4E
1496412286.09,58298,21.5,74206.3,20.59,-22.67,-22.83,0,*47
1496412287.31,58299,21.5,74206.3,20.59,-22.97,-22.87,0,*4D
1496412288.51,58300,21.5,74208.0,20.57,-22.11,-22.37,0,*47
1496412289.76,58301,21.5,74202.8,20.59,-22.63,-22.77,0,*49
1496412291.03,58302,21.5,74206.3,20.59,-24.15,-24.11,0,*4B
1496412292.26,58303,21.5,74204.0,20.61,-23.13,-22.97,0,*48
1496412293.54,58304,21.5,74206.5,20.59,-22.21,-22.31,0,*48
1496412294.78,58305,21.5,74204.0,20.59,-22.53,-22.63,0,*4B
1496412296.03,58306,21.5,74204.5,20.59,-23.33,-23.43,0,*4C
1496412297.31,58307,21.5,74206.8,20.59,-23.33,-23.33,0,*4A
1496412298.54,58308,21.5,74204.8,20.59,-24.57,-24.77,0,*47
1496412299.81,58309,21.5,74204.0,20.59,-24.11,-23.99,0,*43
1496412301.09,58310,21.5,74206.8,20.59,-23.99,-23.99,0,*4C
1496412302.36,58311,21.5,74206.8,20.59,-23.95,-23.99,0,*41
1496412303.65,58312,21.5,74206.3,20.55,-24.25,-24.25,0,*42
1496412304.93,58313,21.5,74204.0,20.55,-24.83,-24.87,0,*47
1496412306.18,58314,21.5,74202.5,20.55,-24.97,-25.03,0,*48
1496412307.4,58315,21.5,74200.5,20.53,-25.45,-25.61,0,*45
1496412308.62,58316,21.5,74204.0,20.55,-25.19,-25.19,0,*46
1496412309.89,58317,21.5,74206.3,20.51,-23.95,-23.95,0,*43
1496412311.14,58318,21.5,74204.8,20.51,-23.03,-22.83,0,*45
1496412312.37,58319,21.5,74204.3,20.51,-23.59,-23.43,0,*46
1496412313.6,58320,21.5,74206.3,20.51,-24.57,-24.57,0,*47
1496412314.85,58321,21.5,74208.0,20.51,-24.31,-24.15,0,*40
1496412316.07,58322,21.5,74204.0,20.49,-23.79,-23.65,0,*41
1496412317.3,58323,21.5,74206.8,20.49,-23.09,-23.19,0,*4C
1496412318.5,58324,21.5,74206.0,20.49,-24.97,-24.97,0,*4A
1496412319.78,58325,21.5,74206.8,20.47,-24.21,-24.11,0,*46
1496412321.0,58326,21.5,74206.0,20.49,-24.15,-24.05,0,*49
1496412322.26,58327,21.5,74208.0,20.49,-24.21,-24.21,0,*49
1496412323.52,58328,21.5,74208.3,20.47,-24.41,-24.35,0,*4B
1496412324.76,58329,21.5,74210.3,20.47,-25.65,-25.49,0,*47
1496412326.03,58330,21.5,74204.3,20.47,-24.87,-24.83,0,*45
1496412327.29,58331,21.5,74204.8,20.45,-24.41,-24.41,0,*42
1496412328.56,58332,21.5,74208.5,20.43,-23.49,-23.33,0,*4A
1496412329.78,58333,21.5,74208.0,20.45,-23.43,-23.43,0,*40
1496412330.97,58334,21.5,74204.5,20.45,-23.89,-23.89,0,*47
1496412332.25,58335,21.5,74204.8,20.47,-24.83,-24.83,0,*44
1496412333.52,58336,21.5,74206.5,20.43,-25.55,-25.61,0,*44
1496412334.81,58337,21.5,74210.0,20.43,-25.55,-25.71,0,*44
1496412336.09,58338,21.5,74210.5,20.39,-25.75,-25.75,0,*40
1496412337.32,58339,21.5,74204.8,20.39,-25.35,-25.35,0,*41
1496412338.55,58340,21.5,74208.8,20.37,-25.65,-25.75,0,*40
1496412339.84,58341,21.5,74204.0,20.35,-25.97,-26.17,0,*49
1496412341.09,58342,21.5,74204.3,20.35,-25.71,-26.23,0,*45
1496412342.36,58343,21.5,74204.3,20.33,-26.77,-26.93,0,*4C
1496412343.59,58344,21.5,74210.3,20.29,-26.29,-26.65,0,*42
1496412344.84,58345,21.5,74204.0,20.31,-24.87,-25.13,0,*4E
1496412346.09,58346,21.5,74210.5,20.29,-23.85,-23.95,0,*49
1496412347.32,58347,21.5,74206.0,20.29,-24.15,-24.35,0,*4B
1496412348.55,58348,21.5,74208.3,20.29,-24.67,-24.97,0,*49
1496412349.78,58349,21.5,74200.8,20.29,-25.39,-25.75,0,*4F
1496412351.02,58350,21.5,74206.5,20.27,-25.71,-26.03,0,*47
1496412352.22,58351,21.5,74202.8,20.27,-25.87,-26.45,0,*4D
1496412353.41,58352,21.5,74206.5,20.23,-24.93,-25.23,0,*4D
1496412354.62,58353,21.5,74206.8,20.23,-25.91,-26.39,0,*47
1496412355.87,58354,21.5,74206.5,20.21,-25.97,-26.45,0,*4F
1496412357.12,58355,21.5,74206.0,20.21,-24.41,-24.93,0,*4D
1496412358.4,58356,21.5,74208.0,20.21,-24.83,-25.45,0,*4A
1496412359.66,58357,21.5,74208.0,20.17,-24.35,-24.87,0,*4C
1496412360.91,58358,21.5,74208.0,20.17,-23.39,-23.85,0,*4D
1496412362.16,58359,21.5,74204.8,20.17,-23.09,-23.53,0,*44
1496412363.39,58360,21.5,74204.5,20.17,-23.59,-24.35,0,*4C
1496412364.62,58361,21.5,74206.0,20.21,-24.61,-25.23,0,*42
1496412365.88,58362,21.5,74204.0,20.21,-23.69,-24.41,0,*4B
1496412367.16,58363,21.5,74204.0,20.21,-23.53,-24.41,0,*43
1496412368.41,58364,21.5,74208.0,20.17,-23.89,-24.83,0,*48
1496412369.66,58365,21.5,74208.3,20.17,-24.51,-25.49,0,*4C
1496412370.93,58366,21.5,74208.8,20.17,-23.33,-24.15,0,*44
1496412372.18,58367,21.5,74208.3,20.17,-23.03,-23.75,0,*47
1496412373.43,58368,21.5,74204.8,20.17,-24.47,-25.49,0,*46
1496412374.64,58369,21.5,74206.0,20.15,-24.57,-25.65,0,*4A
1496412375.87,58370,21.5,74208.5,20.13,-25.35,-26.49,0,*4C
1496412377.12,58371,21.5,74208.0,20.13,-25.55,-26.65,0,*45
1496412378.36,58372,21.5,74206.5,20.11,-23.95,-25.39,0,*44
1496412379.62,58373,21.5,74210.3,20.11,-24.83,-25.97,0,*41
1496412380.84,58374,21.5,74210.5,20.11,-26.55,-27.93,0,*49
1496412382.04,58375,21.5,74208.5,20.07,-27.13,-28.37,0,*4D
1496412383.27,58376,21.5,74208.5,20.07,-25.35,-26.77,0,*42
1496412384.53,58377,21.5,74206.5,20.05,-24.57,-25.71,0,*41
1496412385.79,58378,21.5,74208.8,20.03,-22.47,-23.65,0,*4C
1496412387.03,58379,21.5,74208.8,20.05,-22.11,-23.29,0,*40
1496412388.26,58380,21.5,74208.5,20.03,-23.19,-24.47,0,*46
1496412389.52,58381,21.5,74210.0,20.05,-23.13,-24.41,0,*4D
1496412390.77,58382,21.5,74210.5,20.05,-24.67,-25.87,0,*41
1496412391.99,58383,21.5,74210.3,20.05,-22.63,-23.89,0,*4A
1496412393.2,58384,21.5,74210.8,20.07,-22.97,-24.35,0,*44
1496412394.43,58385,21.5,74210.3,20.07,-23.53,-24.97,0,*44
1496412395.66,58386,21.5,74210.0,20.07,-24.87,-26.65,0,*46
1496412396.88,58387,21.5,74204.8,20.03,-27.29,-29.13,0,*4A
1496412398.09,58388,21.5,74210.5,19.99,-28.69,-30.27,0,*48
1496412399.35,58389,21.5,74208.5,19.95,-28.05,-29.89,0,*43
1496412400.64,58390,21.5,74208.0,19.89,-29.17,-30.77,0,*4D
1496412401.91,58391,21.5,74208.0,19.85,-25.81,-27.23,0,*44
1496412403.14,58392,21.5,74206.5,19.85,-25.87,-27.51,0,*44
1496412404.38,58393,21.5,74204.8,19.85,-24.51,-26.03,0,*49
1496412405.64,58394,21.5,74208.8,19.85,-23.99,-25.39,0,*47
1496412406.85,58395,21.5,74206.8,19.83,-23.75,-25.13,0,*4A
1496412408.07,58396,21.5,74208.0,19.83,-23.03,-24.47,0,*48
1496412409.31,58397,21.5,74206.5,19.83,-22.93,-24.25,0,*45
1496412410.55,58398,21.5,74208.3,19.85,-23.23,-24.57,0,*43
1496412411.75,58399,21.5,74210.0,19.87,-22.83,-24.05,0,*4C
1496412412.98,58400,21.5,74208.0,19.87,-22.53,-23.69,0,*4B
1496412414.19,58401,21.5,74210.5,19.87,-24.05,-25.49,0,*4B
1496412415.4,58402,21.5,74210.3,19.87,-23.79,-25.19,0,*41
1496412416.62,58403,21.5,74208.3,19.87,-23.99,-25.19,0,*4E
1496412417.85,58404,21.5,74206.3,19.87,-23.65,-24.77,0,*43
1496412419.08,58405,21.5,74210.3,19.87,-23.49,-24.77,0,*4C
1496412420.31,58406,21.5,74208.3,19.87,-22.21,-23.39,0,*4D
1496412421.53,58407,21.5,74206.3,19.87,-22.21,-23.39,0,*4C
1496412422.77,58408,21.56,74210.5,19.89,-21.93,-22.93,0,*46
1496412424.0,58409,21.5,74208.8,19.91,-21.93,-23.03,0,*46
1496412425.22,58410,21.5,74206.5,19.93,-21.63,-22.57,0,*43
1496412426.48,58411,21.5,74208.0,19.95,-21.67,-22.77,0,*42
1496412427.74,58412,21.5,74208.3,19.95,-21.67,-22.47,0,*42
1496412429.0,58413,21.5,74208.5,20.01,-21.87,-22.87,0,*46
1496412430.26,58414,21.5,74208.8,20.01,-22.47,-23.43,0,*47
1496412431.49,58415,21.5,74208.8,19.99,-23.03,-23.79,0,*45
1496412432.77,58416,21.5,74208.8,20.01,-22.31,-23.03,0,*40
1496412434.0,58417,21.56,74212.3,20.01,-21.73,-22.63,0,*43
1496412435.2,58418,21.5,74210.0,20.03,-22.87,-23.75,0,*40
1496412436.44,58419,21.5,74210.8,20.05,-22.11,-22.93,0,*41
1496412437.66,58420,21.5,74210.3,20.03,-22.83,-23.65,0,*4E
1496412438.92,58421,21.5,74210.3,20.05,-23.43,-24.25,0,*47
1496412440.17,58422,21.5,74210.5,20.03,-23.49,-24.25,0,*48
1496412441.4,58423,21.56,74214.0,20.05,-22.93,-23.59,0,*45
1496412442.64,58424,21.5,74210.5,20.07,-22.63,-23.23,0,*42
1496412443.88,58425,21.5,74210.0,20.05,-23.39,-24.11,0,*49
1496412445.13,58426,21.5,74208.3,20.05,-23.89,-24.41,0,*44
1496412446.37,58427,21.5,74208.0,20.05,-22.57,-23.09,0,*4C
1496412447.6,58428,21.5,74208.3,20.05,-22.57,-22.97,0,*45
1496412448.86,58429,21.5,74208.0,20.07,-21.83,-22.21,0,*41
1496412450.13,58430,21.56,74210.8,20.09,-22.31,-22.73,0,*4A
1496412451.36,58431,21.5,74210.3,20.09,-22.37,-22.57,0,*4B
1496412452.62,58432,21.56,74212.5,20.09,-23.03,-23.43,0,*4A
1496412453.88,58433,21.5,74210.8,20.09,-23.69,-23.99,0,*40
1496412455.13,58434,21.56,74208.3,20.09,-23.59,-23.99,0,*44
1496412456.38,58435,21.5,74206.8,20.09,-23.79,-23.99,0,*47
1496412457.63,58436,21.56,74212.3,20.11,-23.95,-24.25,0,*4F
1496412458.91,58437,21.5,74206.8,20.09,-23.99,-24.25,0,*4B
1496412460.14,58438,21.56,74208.8,20.07,-23.39,-23.53,0,*46
1496412461.4,58439,21.5,74208.8,20.09,-23.69,-24.11,0,*4D
1496412462.66,58440,21.5,74206.8,20.07,-23.03,-23.03,0,*45
1496412463.91,58441,21.56,74208.5,20.09,-22.73,-22.97,0,*40
1496412465.13,58442,21.5,74210.5,20.09,-22.83,-22.83,0,*49
1496412466.36,58443,21.56,74210.8,20.11,-23.59,-23.69,0,*42
1496412467.6,58444,21.5,74208.3,20.11,-23.69,-23.65,0,*4A
1496412468.83,58445,21.56,74212.3,20.11,-24.83,-24.97,0,*42
1496412470.08,58446,21.56,74208.8,20.11,-24.11,-24.11,0,*44
1496412471.31,58447,21.56,74208.5,20.11,-23.43,-23.33,0,*42
1496412472.54,58448,21.5,74210.0,20.11,-23.43,-23.49,0,*40
1496412473.75,58449,21.56,74210.0,20.11,-23.13,-23.13,0,*4B
1496412474.97,58450,21.56,74210.8,20.13,-22.67,-22.67,0,*41
1496412476.21,58451,21.56,74210.8,20.13,-23.09,-22.93,0,*42
1496412477.44,58452,21.5,74210.5,20.15,-22.27,-22.21,0,*43
1496412478.65,58453,21.5,74210.3,20.15,-22.11,-22.07,0,*43
1496412479.88,58454,21.56,74208.5,20.17,-22.37,-22.11,0,*45
1496412481.11,58455,21.56,74210.3,20.21,-22.57,-22.37,0,*43
1496412482.34,58456,21.56,74208.8,20.21,-22.57,-22.57,0,*46
1496412483.54,58457,21.56,74210.3,20.23,-23.39,-23.13,0,*4D
1496412484.74,58458,21.56,74212.3,20.23,-23.09,-22.83,0,*49
1496412485.97,58459,21.56,74210.5,20.23,-22.47,-22.27,0,*4D
1496412487.22,58460,21.56,74208.8,20.25,-22.83,-22.77,0,*4C
1496412488.46,58461,21.56,74210.5,20.27,-24.21,-24.05,0,*42
1496412489.73,58462,21.56,74208.5,20.25,-24.21,-23.95,0,*4D
1496412490.98,58463,21.56,74210.3,20.25,-24.05,-23.95,0,*4A
1496412492.2,58464,21.56,74210.5,20.25,-23.89,-23.59,0,*4E
1496412493.45,58465,21.56,74208.5,20.25,-23.23,-23.09,0,*4A
1496412494.68,58466,21.56,74210.5,20.25,-23.75,-23.59,0,*4F
1496412495.9,58467,21.56,74208.5,20.27,-23.69,-23.39,0,*47
1496412497.13,58468,21.56,74206.8,20.27,-22.93,-22.77,0,*47
1496412498.39,58469,21.56,74212.0,20.25,-22.83,-22.47,0,*46
1496412499.62,58470,21.56,74208.5,20.27,-22.77,-22.63,0,*41